Weather History for Colorado Springs, CO

Change the Weather History Date:

Tuesday, May 22, 2012

  Actual Average Record
Temperature  
Mean Temperature 71 °F 58 °F  
Max Temperature 90 °F 71 °F 90 °F (2012)
Min Temperature 51 °F 45 °F 31 °F (1931)
Degree Days  
Heating Degree Days 0 8  
Month to date heating degree days 147 233  
Since 1 July heating degree days 5260 6155  
Cooling Degree Days 6 0  
Month to date cooling degree days 18 0  
Year to date cooling degree days 20 1  
Growing Degree Days 20 (Base 50)    
Moisture  
Dew Point 29 °F    
Average Humidity 42    
Maximum Humidity 77    
Minimum Humidity 7    
Precipitation  
Precipitation 0.00 in 0.07 in 1.06 in (1976)
Month to date precipitation 0.50 1.33  
Year to date precipitation 1.72 4.41  
Snow  
Snow 0.00 in 0.00 in 2.00 in (1930)
Month to date snowfall 0.0 0.7  
Since 1 July snowfall 21.7 37.7  
Snow Depth 0.00 in    
Sea Level Pressure  
Sea Level Pressure 29.66 in    
Wind  
Wind Speed 9 mph (West)    
Max Wind Speed 29 mph    
Max Gust Speed 36 mph    
Visibility 10 miles    
Events      
T = Trace of Precipitation, MM = Missing Value Source: NWS Daily Summary

Daily Weather History Graph

Daily Weather History Graph

Search for Another Location

Airport:

Trip Planner

Search our weather history database for the weather conditions in past years. The results will help you decide how hot, cold, wet, or windy it might be!

Date:

Astronomy

May. 22, 2012 Rise Set
Actual Time 5:40 AM MDT 8:10 PM MDT
Civil Twilight 5:09 AM MDT 8:41 PM MDT
Nautical Twilight 4:32 AM MDT 9:19 PM MDT
Astronomical Twilight 3:49 AM MDT 10:01 PM MDT
Moon 6:53 AM MDT (5/22) 9:50 PM MDT (5/22)
Length of Visible Light 15h 31m
Length of Day
14h 30m
Waxing Crescent, 3% of the Moon is Illuminated
May 22
Waxing Crescent
May 28
First Quarter
Jun 4
Full
Jun 11
Last Quarter
Jun 19
New

Hourly Weather History & Observations

Time (MDT) Temp. Dew Point Humidity Pressure Visibility Wind Dir Wind Speed Gust Speed Precip Events Conditions
12:54 AM 59.0 °F 43.0 °F 55% 29.89 in 10.0 mi ENE 4.6 mph - N/A   Clear
1:54 AM 54.0 °F 43.0 °F 66% 29.90 in 10.0 mi Calm Calm - N/A   Clear
2:54 AM 54.0 °F 44.1 °F 69% 29.88 in 10.0 mi North 4.6 mph - N/A   Clear
3:54 AM 52.0 °F 44.1 °F 74% 29.86 in 10.0 mi North 6.9 mph - N/A   Clear
4:54 AM 53.1 °F 44.1 °F 71% 29.85 in 10.0 mi North 8.1 mph - N/A   Clear
5:54 AM 51.1 °F 43.0 °F 74% 29.85 in 10.0 mi North 6.9 mph - N/A   Clear
6:54 AM 60.1 °F 45.0 °F 57% 29.81 in 10.0 mi NE 5.8 mph - N/A   Clear
7:54 AM 69.1 °F 42.1 °F 38% 29.78 in 10.0 mi Calm Calm - N/A   Clear
8:54 AM 73.0 °F 37.9 °F 28% 29.75 in 10.0 mi SE 4.6 mph - N/A   Clear
9:54 AM 77.0 °F 36.0 °F 23% 29.74 in 10.0 mi Calm Calm - N/A   Clear
10:54 AM 82.0 °F 25.0 °F 12% 29.70 in 10.0 mi Variable 5.8 mph - N/A   Partly Cloudy
11:54 AM 84.0 °F 18.0 °F 9% 29.66 in 10.0 mi Variable 3.5 mph - N/A   Partly Cloudy
12:54 PM 86.0 °F 18.0 °F 8% 29.63 in 10.0 mi SW 17.3 mph 23.0 mph N/A   Partly Cloudy
1:39 PM 87.8 °F 19.4 °F 8% 29.90 in 10.0 mi SW 15.0 mph 20.7 mph N/A   Partly Cloudy
1:54 PM 86.0 °F 19.0 °F 8% 29.62 in 10.0 mi South 17.3 mph 23.0 mph N/A   Partly Cloudy
2:54 PM 89.1 °F 21.0 °F 8% 29.56 in 10.0 mi WSW 16.1 mph 21.9 mph N/A   Partly Cloudy
3:54 PM 89.1 °F 23.0 °F 9% 29.53 in 10.0 mi SSW 27.6 mph 35.7 mph N/A   Partly Cloudy
4:54 PM 86.0 °F 21.9 °F 10% 29.51 in 10.0 mi South 15.0 mph 24.2 mph N/A   Partly Cloudy
5:54 PM 88.0 °F 23.0 °F 9% 29.49 in 10.0 mi South 12.7 mph 24.2 mph N/A   Partly Cloudy
6:54 PM 87.1 °F 16.0 °F 7% 29.44 in 10.0 mi WSW 15.0 mph - N/A   Partly Cloudy
7:54 PM 81.0 °F 16.0 °F 9% 29.44 in 10.0 mi WSW 11.5 mph - N/A   Clear
8:54 PM 77.0 °F 18.0 °F 11% 29.44 in 10.0 mi WNW 11.5 mph - N/A   Clear
9:54 PM 73.9 °F 19.9 °F 13% 29.44 in 10.0 mi WNW 6.9 mph - N/A   Clear
10:54 PM 75.0 °F 16.0 °F 11% 29.42 in 10.0 mi WNW 3.5 mph - N/A   Clear
11:54 PM 73.0 °F 17.1 °F 12% 29.40 in 10.0 mi WNW 6.9 mph - N/A   Clear